Change the Weather History Date:

Friday, May 10, 2013

  Actual Average Record
Temperature  
Mean Temperature 60 °F -  
Max Temperature 72 °F 68 °F 91 °F (1936)
Min Temperature 48 °F 44 °F 24 °F (1966)
Degree Days  
Heating Degree Days 4    
Growing Degree Days 10 (Base 50)    
Moisture  
Dew Point 55 °F    
Average Humidity 77    
Maximum Humidity 94    
Minimum Humidity 59    
Precipitation  
Precipitation 0.12 in - - ()
Sea Level Pressure  
Sea Level Pressure 29.82 in    
Wind  
Wind Speed 9 mph (SW)    
Max Wind Speed 14 mph    
Max Gust Speed 23 mph    
Visibility 9 miles    
Events Rain    
Averages and records for this station are not official NWS values.
T = Trace of Precipitation, MM = Missing Value Source: NWS Daily Summary

Daily Weather History Graph

Daily Weather History Graph

Search for Another Location

Airport or City:

Trip Planner

Search our weather history database for the weather conditions in past years. The results will help you decide how hot, cold, wet, or windy it might be!

Date:

Astronomy

May. 10, 2013 Rise Set
Actual Time 6:23 AM EDT 8:44 PM EDT
Civil Twilight 5:52 AM EDT 9:15 PM EDT
Nautical Twilight 5:14 AM EDT 9:54 PM EDT
Astronomical Twilight 4:32 AM EDT 10:37 PM EDT
Moon 6:47 AM EDT (5/10) 9:33 PM EDT (5/10)
Length of Visible Light 15h 23m
Length of Day
14h 20m
New Moon, 0% of the Moon is Illuminated
May 10
New Moon
May 18
First Quarter
May 25
Full
May 31
Last Quarter
Jun 8
New

Hourly Weather History & Observations

Time (EDT) Temp. Dew Point Humidity Pressure Visibility Wind Dir Wind Speed Gust Speed Precip Events Conditions
12:53 AM 64.0 °F 55.9 °F 75% 29.91 in 10.0 mi SW 5.8 mph - 0.00 in   Overcast
2:53 AM 61.0 °F 57.9 °F 90% 29.84 in 3.0 mi SE 5.8 mph - 0.10 in Rain Rain
3:00 AM 60.8 °F 59.0 °F 94% 29.85 in 4.0 mi SE 8.1 mph - 0.00 in Rain Light Rain
3:36 AM 62.6 °F 57.2 °F 82% 29.84 in 10.0 mi South 8.1 mph - 0.02 in   Overcast
3:40 AM 62.6 °F 57.2 °F 82% 29.83 in 10.0 mi South 6.9 mph - 0.02 in   Overcast
3:53 AM 62.1 °F 57.9 °F 86% 29.82 in 10.0 mi South 10.4 mph - 0.02 in   Overcast
4:48 AM 62.6 °F 57.2 °F 82% 29.83 in 10.0 mi SSW 12.7 mph 20.7 mph N/A   Overcast
4:53 AM 63.0 °F 57.9 °F 84% 29.81 in 10.0 mi SSW 12.7 mph 20.7 mph N/A   Overcast
5:21 AM 62.6 °F 57.2 °F 82% 29.82 in 10.0 mi SSW 11.5 mph - N/A   Overcast
5:53 AM 62.1 °F 57.9 °F 86% 29.81 in 10.0 mi SSW 9.2 mph - N/A   Overcast
6:53 AM 61.0 °F 57.9 °F 90% 29.81 in 7.0 mi SSW 8.1 mph - N/A   Mostly Cloudy
7:05 AM 60.8 °F 57.2 °F 88% 29.82 in 6.0 mi SSW 9.2 mph - N/A   Scattered Clouds
7:53 AM 62.1 °F 57.9 °F 86% 29.81 in 8.0 mi SSW 9.2 mph - N/A   Mostly Cloudy
8:53 AM 64.0 °F 59.0 °F 84% 29.81 in 10.0 mi SSW 9.2 mph - N/A   Partly Cloudy
9:53 AM 66.9 °F 60.1 °F 79% 29.81 in 10.0 mi WSW 8.1 mph 17.3 mph N/A   Partly Cloudy
10:17 AM 66.2 °F 59.0 °F 78% 29.81 in 10.0 mi SW 10.4 mph 20.7 mph N/A   Mostly Cloudy
10:53 AM 68.0 °F 57.9 °F 70% 29.81 in 10.0 mi WSW 9.2 mph 18.4 mph N/A   Mostly Cloudy
11:35 AM 69.8 °F 59.0 °F 68% 29.82 in 10.0 mi WSW 11.5 mph 20.7 mph N/A   Mostly Cloudy
11:53 AM 71.1 °F 57.9 °F 63% 29.82 in 10.0 mi SW 12.7 mph 23.0 mph N/A   Scattered Clouds
1:53 PM 71.1 °F 57.0 °F 61% 29.81 in 10.0 mi SW 12.7 mph 18.4 mph N/A   Scattered Clouds
2:53 PM 70.0 °F 55.9 °F 61% 29.80 in 10.0 mi SW 12.7 mph 18.4 mph N/A   Mostly Cloudy
3:53 PM 70.0 °F 57.0 °F 63% 29.78 in 10.0 mi Variable 5.8 mph 17.3 mph 0.00 in Rain Light Rain
4:53 PM 69.1 °F 57.0 °F 65% 29.77 in 10.0 mi Variable 6.9 mph 16.1 mph 0.00 in   Overcast
5:53 PM 71.1 °F 55.9 °F 59% 29.75 in 10.0 mi West 10.4 mph 17.3 mph N/A   Mostly Cloudy
6:53 PM 68.0 °F 55.0 °F 63% 29.76 in 10.0 mi WNW 8.1 mph - N/A   Overcast
7:53 PM 62.1 °F 53.1 °F 72% 29.79 in 10.0 mi NNW 13.8 mph - N/A   Overcast
8:48 PM 55.4 °F 48.2 °F 77% 29.83 in 10.0 mi NNW 13.8 mph - N/A   Overcast
8:53 PM 55.9 °F 48.9 °F 77% 29.83 in 10.0 mi NNW 13.8 mph - N/A   Overcast
9:53 PM 54.0 °F 46.9 °F 77% 29.86 in 10.0 mi NW 10.4 mph - N/A   Overcast
10:19 PM 51.8 °F 46.4 °F 82% 29.87 in 9.0 mi NW 13.8 mph - N/A   Overcast
10:53 PM 50.0 °F 45.0 °F 83% 29.88 in 10.0 mi NNW 11.5 mph - N/A   Overcast
11:53 PM 48.9 °F 43.0 °F 80% 29.89 in 10.0 mi NW 10.4 mph - N/A   Overcast